Voltar ao catálogo

STARLINK-11299

AtivoComunicaçõesVLEO
NORAD 61058·PAYLOAD·🇺🇸 United States

Lançado Sep 13, 2024 de Vandenberg Space Force Base

Loading…

Próximas Passagens (próximas 24 horas)

TLE

AtualizadoSource: CelesTrak SupGP

Época: Sep 14, 2026, 21:27 UTC

1 61058C 24164J   26257.89423611 -.00044609  00000+0 -36743-3 0  2570
2 61058  53.1569  98.8585 0001232  77.2051 207.4147 15.69733233    12

Acompanhe STARLINK-11299 em tempo real com AllMySat

Download on the App Store